Darstellungsparameter: Aktuell verwendete Einstellungen:
Skalierung der Graphiken ... ?
xyx+y,   Skalierungsfaktor:      Skalierung: Modus: x, Faktor: 1
Darstellungszeitraum ... ?
Vom - - bis: - -   Zeitraum: 31.03.2020 - 31.03.2020
Min/Max/Avg-Anzeige ... ?
Zeige MMA aktuell
Zeige MMA Monat
Zeige MMA alles
Zeige --A aktuell
Zeige --A Monat
Zeige --A alles
Keine MMA-Anzeige
MMA:
Average (ber die Originaldaten)
MMA-Basis: 31.03.2020 - 31.03.2020
Quicknavigation für Darstellung... ?
Tage:      1T, 2T, 3T, 5T -1T -2T -3T -5T +1T +2T +3T +5T
Wochen: 1W, 2W, 3W -1W -2W -3W +1W +2W +3W
Monate: 1M, 3M, 6M -1M -3M -6M +1M +3M +6M
Jahre:    1J, 3J, 5J, 10J -1J -3J -5J -10J +1J +3J +5J +10J
Nutze für die Darstellung ... ?
Originaldaten oder Mittelwerte auf ...
Stundenbasis Tagesbasis Wochenbasis
Monatsbasis Jahresbasis      Datenbasis: Original-Daten
Darstellen als:
Statistik (Auto) Statistik J:M      Darstellung:
Zur Graphik,    zurück zur Übersicht aller Sensoren.
 
Tabellarische Datenbersicht: ?
 
Sensor: Nr:Datum:Temp:Feuchte:
Aussen-T/F 1 31-03-2020 00:00:18 4.3 C 30 %
2 31-03-2020 00:10:18 4.3 C 30 %
3 31-03-2020 00:20:18 4.2 C 31 %
4 31-03-2020 00:30:18 4.2 C 31 %
5 31-03-2020 00:40:18 4.2 C 31 %
6 31-03-2020 00:50:18 4.3 C 31 %
7 31-03-2020 01:00:18 4.4 C 32 %
8 31-03-2020 01:10:18 4 C 34 %
9 31-03-2020 01:20:18 3.8 C 36 %
10 31-03-2020 01:30:18 3.8 C 36 %
11 31-03-2020 01:40:18 3.7 C 37 %
12 31-03-2020 01:50:18 4 C 37 %
13 31-03-2020 02:00:18 3.9 C 38 %
14 31-03-2020 02:10:18 3.4 C 39 %
15 31-03-2020 02:20:17 3.5 C 39 %
16 31-03-2020 02:30:18 3.7 C 39 %
17 31-03-2020 02:40:18 3.3 C 40 %
18 31-03-2020 02:50:18 2.8 C 41 %
19 31-03-2020 03:00:18 2.5 C 41 %
20 31-03-2020 03:10:18 2.2 C 42 %
21 31-03-2020 03:20:17 2.4 C 42 %
22 31-03-2020 03:30:18 2.3 C 42 %
23 31-03-2020 03:40:18 2.3 C 43 %
24 31-03-2020 03:50:18 2.7 C 43 %
25 31-03-2020 04:00:18 2.9 C 42 %
Sensor: Nr:Datum:Temp:Feuchte:
Aussen-T/F 26 31-03-2020 04:10:18 3 C 42 %
27 31-03-2020 04:20:18 3.1 C 42 %
28 31-03-2020 04:30:17 3.2 C 42 %
29 31-03-2020 04:40:18 3.2 C 41 %
30 31-03-2020 04:50:17 3.5 C 41 %
31 31-03-2020 05:00:18 3.4 C 41 %
32 31-03-2020 05:10:18 3 C 41 %
33 31-03-2020 05:20:17 2.8 C 43 %
34 31-03-2020 05:30:18 2.5 C 43 %
35 31-03-2020 05:40:18 2.3 C 43 %
36 31-03-2020 05:50:18 1.9 C 44 %
37 31-03-2020 06:00:18 1.7 C 44 %
38 31-03-2020 06:10:18 1.6 C 45 %
39 31-03-2020 06:20:18 1.5 C 45 %
40 31-03-2020 06:30:18 1.7 C 45 %
41 31-03-2020 06:40:18 2 C 45 %
42 31-03-2020 06:50:18 2.1 C 45 %
43 31-03-2020 07:00:18 2.2 C 45 %
44 31-03-2020 07:10:18 2.3 C 45 %
45 31-03-2020 07:20:18 2.2 C 44 %
46 31-03-2020 07:30:18 2.1 C 44 %
47 31-03-2020 07:40:18 1.7 C 45 %
48 31-03-2020 07:50:17 2 C 45 %
49 31-03-2020 08:00:18 2.5 C 45 %
50 31-03-2020 08:10:18 3.1 C 43 %
Sensor: Nr:Datum:Temp:Feuchte:
Aussen-T/F 51 31-03-2020 08:20:18 3.3 C 42 %
52 31-03-2020 08:30:18 3.5 C 41 %
53 31-03-2020 08:40:18 3.7 C 40 %
54 31-03-2020 08:50:17 4 C 38 %
55 31-03-2020 09:00:18 3.9 C 38 %
56 31-03-2020 09:10:18 3.9 C 37 %
57 31-03-2020 09:20:18 4 C 36 %
58 31-03-2020 09:30:17 4 C 36 %
59 31-03-2020 09:40:17 4.1 C 35 %
60 31-03-2020 09:50:18 4.3 C 35 %
61 31-03-2020 10:00:18 4.8 C 34 %
62 31-03-2020 10:10:18 4.7 C 34 %
63 31-03-2020 10:20:18 4.5 C 34 %
64 31-03-2020 10:30:18 4.4 C 34 %
65 31-03-2020 10:40:18 4.3 C 34 %
66 31-03-2020 10:50:17 4.3 C 33 %
67 31-03-2020 11:00:17 4.3 C 33 %
68 31-03-2020 11:10:17 4.4 C 32 %
69 31-03-2020 11:20:18 4.7 C 31 %
70 31-03-2020 11:30:18 5.4 C 30 %
71 31-03-2020 11:40:18 5.3 C 30 %
72 31-03-2020 11:50:17 5.3 C 29 %
73 31-03-2020 12:00:18 5.6 C 27 %
74 31-03-2020 12:10:18 6.3 C 25 %
75 31-03-2020 12:20:17 6.4 C 20 %
Sensor: Nr:Datum:Temp:Feuchte:
Aussen-T/F 76 31-03-2020 12:30:18 9.2 C 20 %
77 31-03-2020 12:40:18 8.4 C 20 %
78 31-03-2020 12:50:18 7 C 20 %
79 31-03-2020 13:00:17 7.5 C 20 %
80 31-03-2020 13:10:17 7.1 C 20 %
81 31-03-2020 13:20:17 7.3 C 20 %
82 31-03-2020 13:30:17 7 C 20 %
83 31-03-2020 13:40:17 8.1 C 20 %
84 31-03-2020 13:51:17 8.4 C 20 %
85 31-03-2020 14:00:17 8.5 C 20 %
86 31-03-2020 14:10:17 9.7 C 20 %
87 31-03-2020 14:20:17 11.2 C 20 %
88 31-03-2020 14:30:17 12.6 C 20 %
89 31-03-2020 14:40:17 11.7 C 20 %
90 31-03-2020 14:51:17 12 C 20 %
91 31-03-2020 15:00:17 12 C 20 %
92 31-03-2020 15:10:18 13.1 C 20 %
93 31-03-2020 15:20:17 13.2 C 20 %
94 31-03-2020 15:30:17 13.5 C 20 %
95 31-03-2020 15:40:17 14.6 C 20 %
96 31-03-2020 15:50:18 13.9 C 20 %
97 31-03-2020 16:00:17 16.8 C 20 %
98 31-03-2020 16:10:17 14.8 C 20 %
99 31-03-2020 16:20:17 15.8 C 20 %
100 31-03-2020 16:31:17 15.1 C 20 %
Sensor: Nr:Datum:Temp:Feuchte:
Aussen-T/F 101 31-03-2020 16:40:17 14 C 20 %
102 31-03-2020 16:50:17 13.3 C 20 %
103 31-03-2020 17:00:17 14.4 C 20 %
104 31-03-2020 17:10:17 16.2 C 20 %
105 31-03-2020 17:21:17 15.3 C 20 %
106 31-03-2020 17:31:17 14.7 C 20 %
107 31-03-2020 17:40:17 15.5 C 20 %
108 31-03-2020 17:51:17 10.6 C 20 %
109 31-03-2020 18:01:17 10.5 C 20 %
110 31-03-2020 18:11:17 10.2 C 20 %
111 31-03-2020 18:21:17 9.8 C 20 %
112 31-03-2020 18:31:17 9.6 C 20 %
113 31-03-2020 18:40:17 9.4 C 20 %
114 31-03-2020 18:51:17 9.1 C 20 %
115 31-03-2020 19:00:17 9.1 C 20 %
116 31-03-2020 19:10:17 8.8 C 20 %
117 31-03-2020 19:20:17 8.7 C 20 %
118 31-03-2020 19:31:17 8.2 C 20 %
119 31-03-2020 19:41:17 7.7 C 20 %
120 31-03-2020 19:50:17 6.6 C 20 %
121 31-03-2020 20:01:17 5.6 C 20 %
122 31-03-2020 20:11:17 5.5 C 20 %
123 31-03-2020 20:21:17 5.3 C 20 %
124 31-03-2020 20:31:17 4.7 C 20 %
125 31-03-2020 20:41:17 4.4 C 20 %
Sensor: Nr:Datum:Temp:Feuchte:
Aussen-T/F 126 31-03-2020 20:51:17 4 C 20 %
127 31-03-2020 21:00:17 3.7 C 20 %
128 31-03-2020 21:10:18 3.9 C 20 %
129 31-03-2020 21:21:17 3.7 C 20 %
130 31-03-2020 21:31:17 3.5 C 20 %
131 31-03-2020 21:41:17 3.2 C 23 %
132 31-03-2020 21:51:17 3.2 C 23 %
133 31-03-2020 22:00:18 3 C 23 %
134 31-03-2020 22:10:18 2.7 C 25 %
135 31-03-2020 22:21:17 2.7 C 25 %
136 31-03-2020 22:31:17 2.6 C 25 %
137 31-03-2020 22:41:17 1.8 C 30 %
138 31-03-2020 22:50:18 1.6 C 30 %
139 31-03-2020 23:01:17 1.6 C 30 %
140 31-03-2020 23:11:17 1.7 C 30 %
141 31-03-2020 23:21:17 1.4 C 31 %
142 31-03-2020 23:30:17 1.3 C 31 %
143 31-03-2020 23:40:18 1.6 C 31 %
144 31-03-2020 23:51:17 0.9 C 32 %
Sensor: Nr:Datum:Temp:Feuchte:
G-T/H 1 31-03-2020 00:00:18 8.5 C 62 %
2 31-03-2020 00:10:18 8.5 C 62 %
3 31-03-2020 00:20:18 8.5 C 62 %
4 31-03-2020 00:30:18 8.5 C 63 %
5 31-03-2020 00:40:18 8.6 C 63 %
6 31-03-2020 00:50:18 8.5 C 63 %
7 31-03-2020 01:00:18 8.5 C 63 %
8 31-03-2020 01:10:18 8.5 C 63 %
9 31-03-2020 01:20:18 8.6 C 63 %
10 31-03-2020 01:30:18 8.5 C 63 %
11 31-03-2020 01:40:18 8.6 C 63 %
12 31-03-2020 01:50:18 8.5 C 63 %
13 31-03-2020 02:00:18 8.5 C 63 %
14 31-03-2020 02:10:18 8.5 C 63 %
15 31-03-2020 02:20:17 8.5 C 63 %
16 31-03-2020 02:30:18 8.5 C 63 %
17 31-03-2020 02:40:18 8.5 C 63 %
18 31-03-2020 02:50:18 8.5 C 63 %
19 31-03-2020 03:00:18 8.5 C 64 %
20 31-03-2020 03:10:18 8.5 C 64 %
21 31-03-2020 03:20:17 8.5 C 64 %
22 31-03-2020 03:30:18 8.5 C 64 %
23 31-03-2020 03:40:18 8.5 C 64 %
24 31-03-2020 03:50:18 8.5 C 64 %
25 31-03-2020 04:00:18 8.5 C 64 %
Sensor: Nr:Datum:Temp:Feuchte:
G-T/H 26 31-03-2020 04:10:18 8.5 C 64 %
27 31-03-2020 04:20:18 8.5 C 64 %
28 31-03-2020 04:30:17 8.5 C 64 %
29 31-03-2020 04:40:18 8.5 C 64 %
30 31-03-2020 04:50:17 8.5 C 64 %
31 31-03-2020 05:00:18 8.5 C 64 %
32 31-03-2020 05:10:18 8.5 C 64 %
33 31-03-2020 05:20:17 8.5 C 64 %
34 31-03-2020 05:30:18 8.5 C 64 %
35 31-03-2020 05:40:18 8.5 C 64 %
36 31-03-2020 05:50:18 8.5 C 64 %
37 31-03-2020 06:00:18 8.5 C 64 %
38 31-03-2020 06:10:18 8.5 C 64 %
39 31-03-2020 06:20:18 8.5 C 64 %
40 31-03-2020 06:30:18 8.4 C 64 %
41 31-03-2020 06:40:18 8.5 C 64 %
42 31-03-2020 06:50:18 8.4 C 64 %
43 31-03-2020 07:00:18 8.5 C 64 %
44 31-03-2020 07:10:18 8.4 C 64 %
45 31-03-2020 07:20:18 8.4 C 64 %
46 31-03-2020 07:30:18 8.4 C 64 %
47 31-03-2020 07:40:18 8.4 C 65 %
48 31-03-2020 07:50:17 8.4 C 65 %
49 31-03-2020 08:00:18 8.4 C 65 %
50 31-03-2020 08:10:18 8.4 C 65 %
Sensor: Nr:Datum:Temp:Feuchte:
G-T/H 51 31-03-2020 08:20:18 8.4 C 65 %
52 31-03-2020 08:30:18 8.4 C 65 %
53 31-03-2020 08:40:18 8.4 C 65 %
54 31-03-2020 08:50:17 8.4 C 65 %
55 31-03-2020 09:00:18 8.4 C 65 %
56 31-03-2020 09:10:18 8.4 C 65 %
57 31-03-2020 09:20:18 8.4 C 65 %
58 31-03-2020 09:30:17 8.4 C 65 %
59 31-03-2020 09:40:17 8.4 C 65 %
60 31-03-2020 09:50:18 8.4 C 65 %
61 31-03-2020 10:00:18 8.4 C 65 %
62 31-03-2020 10:10:18 8.4 C 65 %
63 31-03-2020 10:20:18 8.4 C 65 %
64 31-03-2020 10:30:18 8.4 C 65 %
65 31-03-2020 10:40:18 8.4 C 64 %
66 31-03-2020 10:50:17 8.4 C 64 %
67 31-03-2020 11:00:17 8.4 C 64 %
68 31-03-2020 11:10:17 8.4 C 64 %
69 31-03-2020 11:20:18 8.4 C 64 %
70 31-03-2020 11:30:18 8.4 C 64 %
71 31-03-2020 11:40:18 8.4 C 64 %
72 31-03-2020 11:50:17 8.4 C 64 %
73 31-03-2020 12:00:18 8.4 C 64 %
74 31-03-2020 12:10:18 8.4 C 64 %
75 31-03-2020 12:20:17 8.4 C 64 %
Sensor: Nr:Datum:Temp:Feuchte:
G-T/H 76 31-03-2020 12:30:18 8.4 C 64 %
77 31-03-2020 12:40:18 8.5 C 64 %
78 31-03-2020 12:50:18 8.5 C 64 %
79 31-03-2020 13:00:17 8.5 C 64 %
80 31-03-2020 13:10:17 8.5 C 64 %
81 31-03-2020 13:20:17 8.5 C 63 %
82 31-03-2020 13:30:17 8.5 C 63 %
83 31-03-2020 13:40:17 8.4 C 63 %
84 31-03-2020 13:51:17 8.5 C 63 %
85 31-03-2020 14:00:17 8.5 C 63 %
86 31-03-2020 14:10:17 8.5 C 63 %
87 31-03-2020 14:20:17 8.5 C 63 %
88 31-03-2020 14:30:17 8.5 C 63 %
89 31-03-2020 14:40:17 8.5 C 63 %
90 31-03-2020 14:51:17 8.6 C 63 %
91 31-03-2020 15:00:17 8.6 C 63 %
92 31-03-2020 15:10:18 8.6 C 63 %
93 31-03-2020 15:20:17 8.6 C 63 %
94 31-03-2020 15:30:17 8.6 C 63 %
95 31-03-2020 15:40:17 8.6 C 63 %
96 31-03-2020 15:50:18 8.6 C 63 %
97 31-03-2020 16:00:17 8.6 C 63 %
98 31-03-2020 16:10:17 8.6 C 63 %
99 31-03-2020 16:20:17 8.6 C 63 %
100 31-03-2020 16:31:17 8.7 C 63 %
Sensor: Nr:Datum:Temp:Feuchte:
G-T/H 101 31-03-2020 16:40:17 8.7 C 63 %
102 31-03-2020 16:50:17 8.7 C 63 %
103 31-03-2020 17:00:17 8.7 C 63 %
104 31-03-2020 17:10:17 8.7 C 63 %
105 31-03-2020 17:21:17 8.7 C 63 %
106 31-03-2020 17:31:17 8.8 C 63 %
107 31-03-2020 17:40:17 8.8 C 63 %
108 31-03-2020 17:51:17 8.8 C 62 %
109 31-03-2020 18:01:17 8.8 C 59 %
110 31-03-2020 18:11:17 8.8 C 56 %
111 31-03-2020 18:21:17 8.8 C 56 %
112 31-03-2020 18:31:17 8.8 C 56 %
113 31-03-2020 18:40:17 8.8 C 56 %
114 31-03-2020 18:51:17 8.8 C 57 %
115 31-03-2020 19:00:17 8.8 C 58 %
116 31-03-2020 19:10:17 8.9 C 58 %
117 31-03-2020 19:20:17 8.8 C 58 %
118 31-03-2020 19:31:17 8.9 C 59 %
119 31-03-2020 19:41:17 8.9 C 59 %
120 31-03-2020 19:50:17 8.9 C 59 %
121 31-03-2020 20:01:17 8.9 C 60 %
122 31-03-2020 20:11:17 8.9 C 60 %
123 31-03-2020 20:21:17 8.9 C 60 %
124 31-03-2020 20:31:17 8.9 C 61 %
125 31-03-2020 20:41:17 8.9 C 61 %
Sensor: Nr:Datum:Temp:Feuchte:
G-T/H 126 31-03-2020 20:51:17 8.9 C 61 %
127 31-03-2020 21:00:17 8.9 C 61 %
128 31-03-2020 21:10:18 8.9 C 61 %
129 31-03-2020 21:21:17 8.8 C 61 %
130 31-03-2020 21:31:17 8.9 C 61 %
131 31-03-2020 21:41:17 8.9 C 62 %
132 31-03-2020 21:51:17 8.9 C 62 %
133 31-03-2020 22:00:18 8.9 C 62 %
134 31-03-2020 22:10:18 8.8 C 62 %
135 31-03-2020 22:21:17 8.8 C 62 %
136 31-03-2020 22:31:17 8.8 C 62 %
137 31-03-2020 22:41:17 8.8 C 62 %
138 31-03-2020 22:50:18 8.8 C 62 %
139 31-03-2020 23:01:17 8.8 C 62 %
140 31-03-2020 23:11:17 8.8 C 62 %
141 31-03-2020 23:21:17 8.8 C 62 %
142 31-03-2020 23:30:17 8.8 C 62 %
143 31-03-2020 23:40:18 8.8 C 62 %
144 31-03-2020 23:51:17 8.8 C 62 %

Legende:
   Min
   Max


Maximal/Minimal-Werte vom 31.03.2020 - 31.03.2020

Sensor Min Max Avg
Temp
(Aussen-T/F)
0.9 °C
31-03-2020  23:51:17
16.8 °C
31-03-2020  16:00:17
5.8 °C
Feuchte
(Aussen-T/F)
20 %
31-03-2020  12:20:17
45 %
31-03-2020  06:10:18
30.15 %
Temp
(G-T/H)
8.4 °C
31-03-2020  06:30:18
8.9 °C
31-03-2020  19:10:17
8.58 °C
Feuchte
(G-T/H)
56 %
31-03-2020  18:11:17
65 %
31-03-2020  07:40:18
62.82 %

Die Daten stammen von einer Davis Vantage Pro 2 Wetter-Station und werden unter Linux mit der Software wview2wettercgi und aufbereitet. Alle Angaben erfolgen ohne Gewähr für ihre Vollständigkeit oder Richtigkeit.
Kontakt: Rainer Krienke krienke@uni-koblenz.de . Meine Webseiten an der Uni Koblenz oder privat.
Version: $Revision: 0.78 $